www.pogodaiklimat.ru

Погода и климат >> Архив погоды >> Индия >> Okha


ПОГОДА в Okha

  • Прогноз погоды в Okha
  • Монитор погоды в Okha
  • Климат города

АРХИВ ПОГОДЫ в Okha

Время (UTC), дата Ветер
(напр.,м/с)
 
Видим.   Явления Облачность Т
(С)
Тd
(С)
f
(%)
Тe
(С)
Тes
(С)
Комфортность P
(гПа)
Po
(гПа)
Тmin
(С)
Tmax
(С)
R
(мм)
R24
(мм)
S
(см)
03 11.10 СЗ 2 4000 м 5/0
[Ci fib]
+27.4 0.0 17 +25 +27 комфорт 1010.6 1011.0 +26.8
06 11.10 СЗ 2 4000 м 9/0 2000 м
[Ac trans Ci sp]
+29.0 0.0 15 +26 +35 жарко 1011.6 1012.0
09 11.10 СЗ 3 4000 м 4/0 2000 м
[Ac trans]
+30.4 +13.0 34 +27 +37 жарко 1009.3 1009.0
12 11.10 С 2 4000 м 1/0
[Ci fib]
+29.8 +25.9 80 +45 +46 опасность
перегрева
1008.6 1009.0 +31.0
15 11.10 С 2 4000 м ясно +27.6 +25.6 89 +41 +41 опасность
перегрева
1010.4 1010.0
18 11.10 З 3 4000 м ясно +27.6 +25.3 87 +40 +40 очень
душно
1011.3 1011.0
21 11.10 З 2 4000 м ясно +27.6 +25.6 89 +41 +41 опасность
перегрева
1010.5 1011.0
00 12.10 С 3 4000 м ясно +27.4 +25.4 89 +40 +40 очень
душно
1010.4 1010.0
03 12.10 С 2 4000 м 9/0 2000 м
[Ac trans Ci sp]
+27.4 0.0 17 +25 +27 комфорт 1011.9 1012.0 +26.9
06 12.10 СЗ 3 4000 м 8/0 2000 м
[Ac trans Ci sp]
+28.8 1012.9 1013.0
09 12.10 СЗ 3 4000 м 4/0
[Ci sp]
+30.8 0.0 14 +28 +38 жарко 1010.5 1011.0
12 12.10 СЗ 3 4000 м 6/0 2000 м
[Ac trans Ci sp]
+29.8 0.0 15 +27 +28 жарко 1009.6 1010.0 +31.1
15 12.10 С 2 4000 м 5/0 2000 м
[Ac trans]
+28.4 +12.2 37 +41 +41 опасность
перегрева
1010.9 1011.0
18 12.10 СЗ 2 4000 м 5/0 2000 м
[Ac trans]
+28.0 +24.6 82 +40 +40 очень
душно
1011.6 1012.0
21 12.10 СЗ 3 4000 м 5/0 2000 м
[Ac trans]
+28.2 +25.1 83 +41 +41 опасность
перегрева
1011.2 1011.0
00 13.10 С 3 4000 м 6/0 2000 м
[Ac trans]
+28.0 +12.6 39 +41 +41 опасность
перегрева
1011.4 1011.0
03 13.10 С 3 4000 м 8/0 2000 м
[Ac trans Ci sp]
+28.2 0.0 16 +26 +27 жарко 1013.2 1013.0 +27.2
06 13.10 С 3 4000 м ясно +30.0 0.0 14 +27 +40 жарко 1014.0 1014.0
09 13.10 СЗ 2 4000 м 4/0 2000 м
[Ac trans Ci fib]
+32.0 0.0 13 +29 +39 жарко 1011.2 1011.0
12 13.10 СЗ 2 4000 м 6/3 600 м
[Sc As op Ci fib]
+30.2 +12.0 33 +27 +28 жарко 1011.0 1011.0 +32.0
15 13.10 СЗ 2 4000 м ясно +29.2 +24.3 75 +41 +41 опасность
перегрева
1012.2 1012.0
18 13.10 СЗ 2 4000 м ясно +28.4 +25.3 83 +41 +41 опасность
перегрева
1012.7 1013.0
21 13.10 СЗ 2 4000 м ясно +28.0 +25.2 85 +41 +41 опасность
перегрева
1011.9 1012.0
00 14.10 СЗ 3 4000 м ясно +28.2 +12.6 38 +38 +38 очень
душно
1012.0 1012.0
03 14.10 С 1 4000 м 3/0
[Ci fib]
+28.4 0.0 16 +26 +28 жарко 1014.4 1014.0 +26.7
06 14.10 С 2 4000 м 4/0
[Ci fib]
+30.2 0.0 14 +27 +40 жарко 1015.0 1015.0
09 14.10 СЗ 3 4000 м ясно +31.4 0.0 13 +28 +40 жарко 1012.7 1013.0
12 14.10 СЗ 3 4000 м ясно +29.6 +12.4 35 +27 +28 жарко 1011.8 1012.0 +31.7
15 14.10 СЗ 3 4000 м ясно +27.8 +24.6 83 +39 +39 очень
душно
1012.7 1013.0
18 14.10 СЗ 3 4000 м ясно +27.2 +24.0 83 +38 +38 очень
душно
1013.1 1013.0
21 14.10 СЗ 2 4000 м ясно +26.8 +23.9 84 +37 +37 очень
душно
1012.4 1012.0
00 15.10 СЗ 3 4000 м ясно +26.4 +11.9 40 +37 +37 очень
душно
1012.3 1012.0
03 15.10 З 3 4000 м 5/5 600 м
[Sc]
+27.8 0.0 16 +25 +26 комфорт 1014.2 1014.0 +25.8
06 15.10 СЗ 2 4000 м ясно +30.0 0.0 14 +27 +40 жарко 1015.2 1015.0
09 15.10 СЗ 2 4000 м ясно +30.8 0.0 14 +28 +40 жарко 1012.3 1012.0
12 15.10 СЗ 2 4000 м 5/0
[Ci fib]
+30.0 +12.0 33 1012.0 1012.0 +31.3
15 15.10 СЗ 2 4000 м ясно +27.8 +24.3 81 +39 +39 очень
душно
1013.0 1013.0
18 15.10 З 2 4000 м ясно +27.2 +24.9 87 +39 +39 очень
душно
1013.8 1014.0
21 15.10 СЗ 2 4000 м ясно +26.8 +24.5 87 +38 +38 очень
душно
1013.3 1013.0
00 16.10 СЗ 2 4000 м 3/3 600 м
[Sc]
+26.2 +12.2 42 +36 +36 очень
душно
1012.3 1012.0
03 16.10 штиль 0 4000 м 5/5 600 м
[Sc]
+27.2 0.0 17 +25 +26 комфорт 1014.9 1015.0 +25.2
06 16.10 СЗ 2 4000 м ясно +30.4 0.0 14 +27 +41 жарко 1014.9 1015.0
09 16.10 СЗ 2 4000 м 5/0
[Ci fib]
+31.2 0.0 13 +28 +39 жарко 1012.6 1013.0
12 16.10 СЗ 2 4000 м 3/0
[Ci fib]
+29.8 +12.6 35 +27 +28 жарко 1011.9 1012.0 +31.8
15 16.10 СЗ 2 4000 м ясно +28.0 +25.2 85 +41 +41 опасность
перегрева
1013.3 1013.0
18 16.10 штиль 0 4000 м ясно +27.6 +25.0 86 +40 +40 очень
душно
1013.5 1014.0
21 16.10 СЗ 1 4000 м ясно +27.2 +24.9 87 +39 +39 очень
душно
1012.6 1013.0
00 17.10 штиль 0 4000 м ясно +26.4 +12.4 42 +37 +37 очень
душно
1012.0 1012.0
03 17.10 СЗ 1 4000 м 3/0 2000 м
[Ac trans]
+27.8 0.0 16 +25 +27 комфорт 1014.1 1014.0 +25.5
06 17.10 СЗ 2 4000 м ясно +30.2 0.0 14 +27 +41 жарко 1013.8 1014.0
09 17.10 СЗ 2 4000 м ясно +30.6 0.0 14 +28 +40 жарко 1011.8 1012.0
12 17.10 З 2 4000 м ясно +30.2 0.0 14 +27 +29 жарко 1010.7 1011.0 +31.7
15 17.10 З 2 4000 м ясно +28.2 +24.8 82 +40 +40 очень
душно
1011.7 1012.0
18 17.10 СЗ 1 4000 м ясно +27.8 +24.9 84 +40 +40 очень
душно
1012.0 1012.0
21 17.10 СЗ 1 4000 м 4/4 600 м
[Sc]
+27.4 +24.8 86 +39 +39 очень
душно
1011.4 1011.0
00 18.10 штиль 0 4000 м 4/4 600 м
[Sc]
+26.8 +24.5 87 +38 +38 очень
душно
1011.6 1012.0

 

Местоположение метеостанции Okha (Gujarat, Индия): широта 22.48 долгота 69.12 высота над уровнем моря 7 м.

В архиве по умолчанию представлена погода в Okha за последнюю неделю. Архивные данные за месяц целиком и за предыдущие месяцы, начиная с января 2011 года, Вы можете получить, выбрав интересующий диапазон дат из раскрывающегося списка и нажав кнопку "Ввод!".


*Определитесь, кто Вы:
робот инопланетянин человек

Внимание! Время в таблицах - всемирное. Для получения местного времени необходимо прибавить поправку, которая в Okha равна 5.5 ч.

Смотрите также архив погоды в соседних городах и на ближайших метеорологических станциях:

Погода в Dwarka (Gujarat, Индия) (13 км)
Погода в Mandvi (Gujarat, Индия) (41 км)
Погода в Naliya (Gujarat, Индия) (90 км)
Погода в Bhuj-Rudramata (Gujarat, Индия) (103 км)
Погода в Porbandar (Gujarat, Индия) (108 км)
Погода в Kandla (Gujarat, Индия) (123 км)
Погода в New Kandla (Gujarat, Индия) (127 км)
Погода в Rajkot (Gujarat, Индия) (172 км)
Погода в Veraval (Gujarat, Индия) (218 км)
Погода в Amreli (Gujarat, Индия) (238 км)

Пояснения к столбцам:

Ветер - указаны скорость ветра в м/с - средняя за 10 мин, порывы в срок и между сроками (в фигурных скобках) и направление, откуда дует ветер: С - северный, СВ - северо-восточный, В - восточный, ЮВ - юго-восточный, Ю - южный, ЮЗ - юго-западный, З - западный, СЗ - северо-западный.
Видимость - горизонтальная дальность видимости в метрах или километрах. При видимости от 1 до 10 км при отсутствии осадков обычно наблюдается дымка, при ухудшении видимости до 1 км и менее - туман. В сухую погоду видимость может ухудшаться дымом, пылью или мглою.
Явления - указаны атмосферные явления, наблюдавшиеся в срок или в последний час перед сроком; фигурными скобками обозначены явления, наблюдавшиеся между сроками (за 1-3 часа до срока); квадратными скобками обозначены град или гололедные отложения с указанием их диаметра в мм.
Облачность - указаны через наклонную черту общая и нижняя облачность в баллах и высота нижней границы облаков в метрах; квадратными скобками обозначены формы облаков: Ci - перистые, Cs - перисто-слоистые, Cc - перисто-кучевые, Ac - высококучевые, As - высокослоистые, Sc - слоисто-кучевые, Ns - слоисто-дождевые, Cu - кучевые, Cb - кучево-дождевые. Подробнее классификацию облаков см. в Атласе облаков (PDF).
T - Температура воздуха - температура, измеренная на высоте 2 м над землей.
Td - Температура точки росы - температура, при понижении до которой содержащийся в воздухе водяной пар достигнет насыщения.
f - Относительная влажность воздуха - влажноcть воздуха, измеренная на высоте 2 м над землей.
Te - Эффективная температура - температура, которую ощущает одетый по сезону человек в тени. Характеристика душности погоды. При расчете учитывается влияние влажности воздуха и скорости ветра на теплоощущения человека.
Tes - Эффективная температура на солнце - температура, которую ощущает человек, с поправкой на солнечный нагрев. Характеристика знойности погоды. Зависит от высоты солнца над горизонтом, облачности и скорости ветра. Ночью, в пасмурную погоду, а также при ветре 12 м/с и более поправка равна нулю.
P - Атмосферное давление - приведенное к уровню моря атмосферное давление.
Po - Атмосферное давление - измеренное на уровне метеостанции атмосферное давление.
Tmin - Минимальная температура - минимум температуры воздуха на высоте 2 м над землей.
Tmax - Максимальная температура - максимум температуры воздуха на высоте 2 м над землей.
R - Количество осадков - Количество выпавших осадков за период времени, мм. При наведении курсора мыши на число - период времени, за который выпало указанное количество осадков.
R24 - Количество осадков - Количество выпавших осадков за 24 часа, мм.
S - Снежный покров - Высота снежного покрова, см. При наведении курсора мыши на число - состояние снежного покрова и степень покрытия местности в баллах.